Location: Goettingen
(51.5300°N, 9.9433°E)
Time: 10:32:40
(UTC+02:00)

ISS - Pass Details

Date: 18 May 2019
Orbit: 407 x 410 km, 51.6° (Epoch: 21 May)

Event Time Altitude Azimuth Distance (km) Brightness Sun altitude
Rises 22:51:36 0° 226° (SW) 2,324 -0.1 -12.1°
Reaches altitude 10° 22:53:48 10° 216° (SW) 1,467 -1.2 -12.3°
Maximum altitude 22:56:46 32° 151° (SSE) 728 -3.1 -12.5°
Drops below altitude 10° 22:59:46 10° 86° (E) 1,475 -1.3 -12.8°
Sets 23:01:59 0° 76° (ENE) 2,339 -0.2 -13.0°
